Torna al catalogo

NOAA 16 DEB

AttivoPO
NORAD 42394·DEBRIS·🇺🇸 United States

Lanciato Sep 21, 2000 da Vandenberg Space Force Base

Loading…

Prossimi Passaggi (prossime 24 ore)

TLE

AggiornatoSource: Space-Track

Epoca: Sep 14, 2026, 21:48 UTC

1 42394U 00055SN  26257.90885864  .00005875  00000-0  12324-2 0  9991
2 42394  98.9643 126.3879 0030235 172.4644 187.7014 14.59799975548695

Traccia NOAA 16 DEB in tempo reale con AllMySat

Download on the App Store